Marshfield, WI

7:59 PM CST on November 18, 2017 (GMT -0600)
Marshfield Municipal

Weather History for KMFI - May, 2014

Change the Weather History Date:

Monday, May 12, 2014

  Actual Average Record
Temperature  
Mean Temperature 65 °F -  
Max Temperature 73 °F 66 °F 86 °F (1991)
Min Temperature 57 °F 41 °F 26 °F (1967)
Growing Degree Days 15 (Base 50)    
Moisture  
Dew Point 59 °F    
Average Humidity 89    
Maximum Humidity 96    
Minimum Humidity 71    
Precipitation  
Precipitation 0.91 in - - ()
Sea Level Pressure  
Sea Level Pressure 29.80 in    
Wind  
Wind Speed 10 mph (ESE)    
Max Wind Speed 17 mph    
Max Gust Speed 18 mph    
Visibility 6 miles    
Events Fog , Rain , Thunderstorm    
Averages and records for this station are not official NWS values.
T = Trace of Precipitation, MM = Missing Value Source: NWS Daily Summary

Daily Weather History Graph

Daily Weather History Graph

Search for Another Location

Airport or City:

Trip Planner

Search our weather history database for the weather conditions in past years. The results will help you decide how hot, cold, wet, or windy it might be!

Date:

Astronomy

May. 12, 2014 Rise Set
Actual Time 5:36 AM CDT 8:18 PM CDT
Civil Twilight 5:02 AM CDT 8:52 PM CDT
Nautical Twilight 4:20 AM CDT 9:34 PM CDT
Astronomical Twilight 3:31 AM CDT 10:23 PM CDT
Moon 6:11 PM CDT (5/12) 4:21 AM CDT (5/12)
Length of Visible Light 15h 49m
Length of Day
14h 42m
Waxing Gibbous, 95% of the Moon is Illuminated
May 12
Waxing Gibbous
May 14
Full
May 21
Last Quarter
May 28
New
Jun 5
First Quarter

Hourly Weather History & Observations

Time (CDT) Temp. Dew Point Humidity Pressure Visibility Wind Dir Wind Speed Gust Speed Precip Events Conditions
12:37 AM 62.1 °F 57.9 °F 86% 29.84 in 10.0 mi ESE 13.8 mph - 0.00 in Thunderstorm Overcast
12:54 AM 62.1 °F 57.9 °F 86% 29.83 in 10.0 mi ESE 12.7 mph - 0.00 in Rain , Thunderstorm Light Rain
1:24 AM 62.1 °F 57.9 °F 86% 29.83 in 9.0 mi East 10.4 mph - 0.01 in Rain , Thunderstorm Thunderstorms and Rain
1:45 AM 61.0 °F 57.9 °F 90% 29.81 in 9.0 mi East 10.4 mph - 0.03 in Rain Light Rain
1:54 AM 61.0 °F 57.9 °F 90% 29.78 in 10.0 mi East 11.5 mph - 0.03 in Rain Light Rain
2:17 AM 61.0 °F 57.9 °F 90% 29.77 in 10.0 mi East 16.1 mph - 0.00 in Thunderstorm Overcast
2:25 AM 61.0 °F 57.9 °F 90% 29.78 in 8.0 mi East 12.7 mph - 0.01 in Rain , Thunderstorm Light Rain
2:35 AM 61.0 °F 57.9 °F 90% 29.85 in 2.5 mi SSE 8.1 mph - 0.12 in Rain , Thunderstorm Thunderstorms and Rain
2:39 AM 61.0 °F 59.0 °F 93% 29.83 in 1.2 mi ESE 3.5 mph - 0.21 in Rain , Thunderstorm Heavy Thunderstorms and Rain
2:46 AM 61.0 °F 59.0 °F 93% 29.85 in 1.0 mi Calm Calm - 0.27 in Rain , Thunderstorm Heavy Thunderstorms and Rain
2:48 AM 60.8 °F 59.0 °F 94% 29.85 in 1.2 mi Calm Calm - 0.28 in Rain , Thunderstorm Heavy Thunderstorms and Rain
2:54 AM 61.0 °F 59.0 °F 93% 29.83 in 1.5 mi NE 5.8 mph - 0.32 in Rain , Thunderstorm Heavy Thunderstorms and Rain
3:03 AM 60.1 °F 57.9 °F 93% 29.85 in 1.8 mi ENE 5.8 mph - 0.05 in Rain , Thunderstorm Heavy Rain
3:07 AM 60.1 °F 57.9 °F 93% 29.85 in 1.8 mi ENE 4.6 mph - 0.07 in Rain , Thunderstorm Heavy Rain
3:18 AM 60.1 °F 57.9 °F 93% 29.83 in 1.5 mi East 11.5 mph - 0.16 in Rain , Thunderstorm Heavy Thunderstorms and Rain
3:31 AM 60.1 °F 57.9 °F 93% 29.82 in 1.8 mi ENE 11.5 mph - 0.25 in Rain Heavy Rain
3:47 AM 60.1 °F 57.9 °F 93% 29.83 in 1.8 mi East 17.3 mph - 0.44 in Rain , Thunderstorm Heavy Rain
3:51 AM 60.8 °F 57.2 °F 88% 29.82 in 2.5 mi East 15.0 mph - 0.46 in Rain , Thunderstorm Heavy Thunderstorms and Rain
3:54 AM 60.1 °F 57.9 °F 93% 29.82 in 2.5 mi East 9.2 mph - 0.47 in Rain , Thunderstorm Thunderstorms and Rain
3:57 AM 60.1 °F 57.9 °F 93% 29.83 in 3.0 mi East 10.4 mph - 0.01 in Rain , Thunderstorm Thunderstorms and Rain
4:06 AM 60.1 °F 57.9 °F 93% 29.82 in 4.0 mi ESE 5.8 mph - 0.02 in Rain Light Rain
4:54 AM 59.0 °F 57.0 °F 93% 29.78 in 5.0 mi East 13.8 mph - 0.02 in   Overcast
5:54 AM 57.0 °F 55.0 °F 93% 29.78 in 6.0 mi ESE 13.8 mph - 0.00 in Rain Light Rain
6:54 AM 57.9 °F 55.9 °F 93% 29.76 in 4.0 mi ESE 10.4 mph - 0.00 in   Overcast
7:54 AM 59.0 °F 55.9 °F 90% 29.78 in 6.0 mi SE 15.0 mph - N/A   Overcast
9:36 AM 59.0 °F 57.9 °F 96% 29.83 in 2.5 mi South 9.2 mph - N/A   Overcast
9:54 AM 59.0 °F 57.9 °F 96% 29.85 in 1.0 mi South 8.1 mph - 0.00 in Rain Light Rain
10:04 AM 59.0 °F 57.9 °F 96% 29.85 in 0.5 mi South 8.1 mph - 0.00 in Fog , Rain Light Rain
10:39 AM 60.1 °F 59.0 °F 96% 29.86 in 1.2 mi South 11.5 mph - 0.02 in Rain Rain
10:51 AM 60.8 °F 59.0 °F 94% 29.86 in 3.0 mi South 11.5 mph - 0.03 in Rain Rain
10:54 AM 61.0 °F 59.0 °F 93% 29.86 in 3.0 mi South 12.7 mph - 0.04 in Rain Rain
11:54 AM 63.0 °F 61.0 °F 93% 29.78 in 10.0 mi SSE 11.5 mph - 0.03 in   Mostly Cloudy
12:07 PM 63.0 °F 61.0 °F 93% 29.78 in 10.0 mi SSE 12.7 mph - N/A   Mostly Cloudy
12:54 PM 64.0 °F 61.0 °F 90% 29.79 in 10.0 mi South 10.4 mph - 0.00 in   Overcast
1:17 PM 64.9 °F 62.1 °F 90% 29.78 in 10.0 mi SSE 4.6 mph - N/A   Overcast
1:54 PM 66.9 °F 60.1 °F 79% 29.77 in 10.0 mi Calm Calm - N/A   Overcast
2:54 PM 66.9 °F 60.1 °F 79% 29.78 in 10.0 mi SE 5.8 mph - N/A   Overcast
3:54 PM 71.1 °F 63.0 °F 75% 29.78 in 10.0 mi SSE 9.2 mph - N/A   Overcast
4:41 PM 72.0 °F 63.0 °F 73% 29.77 in 10.0 mi SSE 10.4 mph - N/A   Mostly Cloudy
4:54 PM 73.0 °F 63.0 °F 71% 29.75 in 10.0 mi ESE 9.2 mph - N/A   Mostly Cloudy
5:54 PM 73.0 °F 63.0 °F 71% 29.74 in 10.0 mi SE 6.9 mph - N/A   Clear
6:54 PM 71.1 °F 64.0 °F 78% 29.73 in 10.0 mi ESE 3.5 mph - N/A   Clear
7:54 PM 71.1 °F 63.0 °F 75% 29.73 in 10.0 mi SSE 6.9 mph - N/A   Clear
8:54 PM 68.0 °F 63.0 °F 84% 29.72 in 10.0 mi SE 5.8 mph - N/A   Mostly Cloudy
9:34 PM 66.0 °F 62.1 °F 87% 29.72 in 10.0 mi East 10.4 mph - N/A   Overcast
9:54 PM 64.9 °F 62.1 °F 90% 29.72 in 9.0 mi East 9.2 mph - N/A   Overcast
10:50 PM 64.4 °F 62.6 °F 94% 29.74 in 7.0 mi SE 9.2 mph - N/A   Overcast
10:54 PM 64.0 °F 61.0 °F 90% 29.74 in 7.0 mi SE 13.8 mph - N/A   Overcast
11:09 PM 64.0 °F 61.0 °F 90% 29.74 in 6.0 mi ESE 11.5 mph - N/A   Overcast
11:54 PM 64.0 °F 61.0 °F 90% 29.75 in 4.0 mi SE 10.4 mph 18.4 mph 0.00 in Rain Light Rain